Location: Drocourt
(49.0571°N, 1.7669°E)
Time: 16:54:56
(UTC+00:00)

Vanguard 2 - All Passes

Search period start: 23 April 2024 00:00
Search period end: 03 May 2024 00:00
Orbit: 552 x 2916 km, 32.9° (Epoch: 23 April)

Date Brightness Start Highest point End Pass type
(mag) Time Alt. Az. Time Alt. Az. Time Alt. Az.
23 Apr - 01:46:43 10° SW 02:00:33 42° SSE 02:16:16 10° ESE visible
23 Apr - 03:55:39 10° WSW 04:11:02 43° S 04:26:03 10° SE visible
23 Apr - 06:07:03 10° W 06:20:50 30° SSW 06:32:51 10° SSE daylight
23 Apr - 08:26:32 10° WSW 08:28:40 10° SW 08:30:43 10° SW daylight
23 Apr - 21:55:39 10° SE 21:57:50 11° SE 22:00:09 10° ESE visible
23 Apr - 23:54:21 10° SSW 00:05:18 30° SSE 00:18:57 10° E visible
24 Apr - 02:00:55 10° SW 02:14:52 43° S 02:30:47 10° ESE visible
24 Apr - 04:10:11 10° WSW 04:25:20 41° SSW 04:40:10 10° SE visible
24 Apr - 06:22:09 10° W 06:34:50 25° SW 06:46:08 10° SSE daylight
24 Apr - 22:05:43 10° SSE 22:11:34 15° SE 22:18:25 10° ESE visible
25 Apr - 00:08:04 10° SSW 00:19:24 34° SSE 00:33:46 10° E visible
25 Apr - 02:15:13 10° WSW 02:29:12 44° S 02:45:11 10° ESE visible
25 Apr - 04:24:48 10° WSW 04:39:35 38° SSW 04:54:07 10° SE daylight
25 Apr - 06:37:35 10° W 06:48:47 21° SW 06:58:58 10° S daylight
25 Apr - 22:18:02 10° S 22:25:23 19° SE 22:34:28 10° ESE visible
26 Apr - 00:21:59 10° SW 00:33:33 37° SSE 00:48:27 10° ESE visible
26 Apr - 02:29:35 10° WSW 02:43:31 44° S 02:59:30 10° ESE visible
26 Apr - 04:39:31 10° W 04:53:47 35° SSW 05:07:52 10° SSE daylight
26 Apr - 06:53:35 10° WSW 07:02:39 17° SW 07:11:05 10° SSW daylight
26 Apr - 22:31:03 10° S 22:39:15 23° SE 22:49:52 10° E visible
27 Apr - 00:36:02 10° SW 00:47:45 40° SSE 01:03:00 10° ESE visible
27 Apr - 02:44:01 10° WSW 02:57:52 43° S 03:13:41 10° SE visible
27 Apr - 04:54:22 10° W 05:07:55 31° SSW 05:21:21 10° SSE daylight
27 Apr - 07:11:02 10° WSW 07:16:27 12° SW 07:21:40 10° SSW daylight
27 Apr - 22:44:28 10° SSW 22:53:12 27° SSE 23:04:54 10° E visible
28 Apr - 00:50:13 10° SW 01:02:00 41° S 01:17:28 10° ESE visible
28 Apr - 02:58:32 10° WSW 03:12:09 40° SSW 03:27:43 10° SE visible
28 Apr - 05:09:25 10° W 05:21:59 26° SSW 05:34:31 10° SSE daylight
28 Apr - 20:58:14 10° SE 21:00:11 11° SE 21:02:17 10° ESE visible
28 Apr - 22:58:09 10° SSW 23:07:13 30° SSE 23:19:43 10° E visible
29 Apr - 01:04:28 10° WSW 01:16:17 42° S 01:31:50 10° ESE visible
29 Apr - 03:13:06 10° WSW 03:26:25 37° SSW 03:41:36 10° SE visible
29 Apr - 05:24:46 10° WSW 05:35:59 22° SW 05:47:13 10° S daylight
29 Apr - 21:09:14 10° SSE 21:13:57 14° SE 21:19:39 10° ESE visible
29 Apr - 23:12:01 10° SW 23:21:19 33° SSE 23:34:23 10° ESE visible
30 Apr - 01:18:48 10° WSW 01:30:35 41° S 01:46:05 10° ESE visible
30 Apr - 03:27:47 10° WSW 03:40:39 34° SSW 03:55:15 10° SE visible
30 Apr - 05:40:41 10° WSW 05:49:55 17° SW 05:59:13 10° S daylight
30 Apr - 21:21:56 10° S 21:27:47 18° SE 21:35:20 10° ESE visible
30 Apr - 23:26:03 10° SW 23:35:28 36° SSE 23:48:55 10° ESE visible
01 May - 01:33:13 10° WSW 01:44:54 40° S 02:00:12 10° SE visible
01 May - 03:42:35 10° WSW 03:54:49 30° SSW 04:08:36 10° SSE visible
01 May - 05:57:54 10° WSW 06:03:48 13° SW 06:09:45 10° SSW daylight
01 May - 21:35:12 10° SSW 21:41:42 22° SE 21:50:28 10° ESE visible
01 May - 23:40:11 10° SW 23:49:41 37° SSE 00:03:21 10° ESE visible
02 May - 01:47:41 10° WSW 01:59:11 38° S 02:14:10 10° SE visible
02 May - 03:57:37 10° WSW 04:08:57 25° SSW 04:21:38 10° SSE visible
02 May - 21:48:48 10° SSW 21:55:40 25° SSE 22:05:19 10° ESE visible
